Time,TemperatureF,DewpointF,PressureIn,WindDirection,WindDirectionDegrees,WindSpeedMPH,WindSpeedGustMPH,Humidity,HourlyPrecipIn,Conditions,Clouds,dailyrainin,SoftwareType,DateUTC
2013-07-05 00:00:00,61.0,40.1,29.68,SSW,205,0.0,3.0,46,0.00,,,0.00,meteohub,2013-07-05 06:00:00,
2013-07-05 00:06:00,60.8,39.9,29.68,SSW,205,0.0,3.0,46,0.00,,,0.00,meteohub,2013-07-05 06:06:00,
2013-07-05 00:11:00,60.4,40.1,29.68,SSW,205,0.0,2.0,47,0.00,,,0.00,meteohub,2013-07-05 06:11:00,
2013-07-05 00:16:00,60.1,39.7,29.68,South,172,2.0,2.0,47,0.00,,,0.00,meteohub,2013-07-05 06:16:00,
2013-07-05 00:21:00,60.1,39.7,29.68,South,169,2.0,2.0,47,0.00,,,0.00,meteohub,2013-07-05 06:21:00,
2013-07-05 00:26:00,59.7,39.4,29.68,SSW,204,0.0,3.0,47,0.00,,,0.00,meteohub,2013-07-05 06:26:00,
2013-07-05 00:31:00,59.7,39.4,29.68,SSE,158,2.0,4.0,47,0.00,,,0.00,meteohub,2013-07-05 06:31:00,
2013-07-05 00:36:00,59.7,39.9,29.68,SSE,155,0.0,4.0,48,0.00,,,0.00,meteohub,2013-07-05 06:36:00,
2013-07-05 00:41:00,59.5,41.9,29.68,SSE,155,0.0,4.0,52,0.00,,,0.00,meteohub,2013-07-05 06:41:00,
2013-07-05 00:46:00,58.8,42.3,29.68,SSE,155,0.0,3.0,54,0.00,,,0.00,meteohub,2013-07-05 06:46:00,
2013-07-05 00:51:00,58.6,42.4,29.68,East,91,2.0,2.0,55,0.00,,,0.00,meteohub,2013-07-05 06:51:00,
2013-07-05 00:56:00,58.6,43.0,29.68,ENE,73,1.0,2.0,56,0.00,,,0.00,meteohub,2013-07-05 06:56:00,
2013-07-05 01:01:00,58.1,43.0,29.68,East,82,1.0,3.0,57,0.00,,,0.00,meteohub,2013-07-05 07:01:00,
2013-07-05 01:06:00,57.7,43.0,29.68,ENE,77,1.0,3.0,58,0.00,,,0.00,meteohub,2013-07-05 07:06:00,
2013-07-05 01:11:00,57.9,42.8,29.68,ENE,77,1.0,3.0,57,0.00,,,0.00,meteohub,2013-07-05 07:11:00,
2013-07-05 01:16:00,58.1,43.0,29.68,ENE,72,1.0,2.0,57,0.00,,,0.00,meteohub,2013-07-05 07:16:00,
2013-07-05 01:21:00,57.6,43.0,29.68,NW,325,2.0,2.0,58,0.00,,,0.00,meteohub,2013-07-05 07:21:00,
2013-07-05 01:27:00,56.7,42.4,29.68,NNW,344,3.0,4.0,59,0.00,,,0.00,meteohub,2013-07-05 07:27:00,
2013-07-05 01:32:00,55.9,42.3,29.68,NNW,338,1.0,6.0,60,0.00,,,0.00,meteohub,2013-07-05 07:32:00,
2013-07-05 01:37:00,55.8,42.4,29.68,WNW,294,2.0,7.0,61,0.00,,,0.00,meteohub,2013-07-05 07:37:00,
2013-07-05 01:42:00,55.8,42.4,29.68,NW,314,3.0,7.0,61,0.00,,,0.00,meteohub,2013-07-05 07:42:00,
2013-07-05 01:47:00,55.6,42.3,29.68,WNW,292,0.0,7.0,61,0.00,,,0.00,meteohub,2013-07-05 07:47:00,
2013-07-05 01:52:00,55.6,42.3,29.67,NW,307,3.0,4.0,61,0.00,,,0.00,meteohub,2013-07-05 07:52:00,
2013-07-05 01:57:00,55.9,42.3,29.67,NNW,329,3.0,6.0,60,0.00,,,0.00,meteohub,2013-07-05 07:57:00,
2013-07-05 02:02:00,56.1,41.9,29.67,NW,325,0.0,6.0,59,0.00,,,0.00,meteohub,2013-07-05 08:02:00,
2013-07-05 02:07:00,56.5,41.9,29.66,WSW,246,0.0,5.0,58,0.00,,,0.00,meteohub,2013-07-05 08:07:00,
2013-07-05 02:12:00,57.0,41.9,29.66,West,281,0.0,3.0,57,0.00,,,0.00,meteohub,2013-07-05 08:12:00,
2013-07-05 02:17:00,57.0,42.4,29.66,North,358,0.0,3.0,58,0.00,,,0.00,meteohub,2013-07-05 08:17:00,
2013-07-05 02:22:00,56.1,41.5,29.66,WNW,289,1.0,3.0,58,0.00,,,0.00,meteohub,2013-07-05 08:22:00,
2013-07-05 02:27:00,56.1,41.2,29.65,WNW,288,2.0,3.0,57,0.00,,,0.00,meteohub,2013-07-05 08:27:00,
2013-07-05 02:32:00,56.1,41.2,29.65,WNW,283,2.0,3.0,57,0.00,,,0.00,meteohub,2013-07-05 08:32:00,
2013-07-05 02:37:00,55.9,41.4,29.65,WNW,285,1.0,3.0,58,0.00,,,0.00,meteohub,2013-07-05 08:37:00,
2013-07-05 02:42:00,55.9,41.4,29.65,WNW,303,1.0,3.0,58,0.00,,,0.00,meteohub,2013-07-05 08:42:00,
2013-07-05 02:47:00,55.9,41.4,29.65,NW,317,0.0,3.0,58,0.00,,,0.00,meteohub,2013-07-05 08:47:00,
2013-07-05 02:52:00,55.9,41.4,29.65,NNW,329,2.0,3.0,58,0.00,,,0.00,meteohub,2013-07-05 08:52:00,
2013-07-05 02:57:00,56.1,41.5,29.65,NW,322,3.0,3.0,58,0.00,,,0.00,meteohub,2013-07-05 08:57:00,
2013-07-05 03:02:00,56.1,41.5,29.65,NNW,328,3.0,3.0,58,0.00,,,0.00,meteohub,2013-07-05 09:02:00,
2013-07-05 03:07:00,55.8,41.7,29.65,NW,319,2.0,3.0,59,0.00,,,0.00,meteohub,2013-07-05 09:07:00,
2013-07-05 03:12:00,55.6,41.5,29.65,NW,326,3.0,3.0,59,0.00,,,0.00,meteohub,2013-07-05 09:12:00,
2013-07-05 03:17:00,55.2,41.5,29.65,NW,318,3.0,6.0,60,0.00,,,0.00,meteohub,2013-07-05 09:17:00,
2013-07-05 03:22:00,55.0,41.9,29.65,NNW,327,5.0,6.0,61,0.00,,,0.00,meteohub,2013-07-05 09:22:00,
2013-07-05 03:27:00,55.2,41.5,29.65,NNW,338,7.0,8.0,60,0.00,,,0.00,meteohub,2013-07-05 09:27:00,
2013-07-05 03:32:00,55.6,41.9,29.64,NNW,336,4.0,9.0,60,0.00,,,0.00,meteohub,2013-07-05 09:32:00,
2013-07-05 03:37:00,55.4,41.7,29.64,West,276,2.0,9.0,60,0.00,,,0.00,meteohub,2013-07-05 09:37:00,
2013-07-05 03:42:00,55.4,42.3,29.64,WNW,303,3.0,8.0,61,0.00,,,0.00,meteohub,2013-07-05 09:42:00,
2013-07-05 03:48:00,55.2,42.1,29.64,NNW,329,6.0,6.0,61,0.00,,,0.00,meteohub,2013-07-05 09:48:00,
2013-07-05 03:53:00,55.6,42.3,29.64,NNW,328,7.0,7.0,61,0.00,,,0.00,meteohub,2013-07-05 09:53:00,
2013-07-05 03:58:00,55.8,42.1,29.65,NW,312,9.0,9.0,60,0.00,,,0.00,meteohub,2013-07-05 09:58:00,
2013-07-05 04:03:00,55.8,42.4,29.65,NNW,335,10.0,13.0,61,0.00,,,0.00,meteohub,2013-07-05 10:03:00,
2013-07-05 04:08:00,55.6,42.3,29.65,NNW,327,6.0,14.0,61,0.00,,,0.00,meteohub,2013-07-05 10:08:00,
2013-07-05 04:13:00,55.6,42.3,29.65,NNW,335,6.0,14.0,61,0.00,,,0.00,meteohub,2013-07-05 10:13:00,
2013-07-05 04:19:00,55.8,42.1,29.65,NW,322,5.0,14.0,60,0.00,,,0.00,meteohub,2013-07-05 10:19:00,
2013-07-05 04:24:00,55.8,42.1,29.65,NNW,327,5.0,10.0,60,0.00,,,0.00,meteohub,2013-07-05 10:24:00,
2013-07-05 04:29:00,55.8,42.4,29.65,NW,319,4.0,8.0,61,0.00,,,0.00,meteohub,2013-07-05 10:29:00,
2013-07-05 04:35:00,55.6,42.3,29.65,NW,320,4.0,8.0,61,0.00,,,0.00,meteohub,2013-07-05 10:35:00,
2013-07-05 04:40:00,55.8,42.4,29.65,NW,321,4.0,8.0,61,0.00,,,0.00,meteohub,2013-07-05 10:40:00,
2013-07-05 04:46:00,55.8,42.1,29.65,NW,326,5.0,6.0,60,0.00,,,0.00,meteohub,2013-07-05 10:46:00,
2013-07-05 04:52:00,55.9,42.3,29.65,NW,326,5.0,6.0,60,0.00,,,0.00,meteohub,2013-07-05 10:52:00,
2013-07-05 04:57:00,56.1,41.9,29.65,NNW,328,6.0,7.0,59,0.00,,,0.00,meteohub,2013-07-05 10:57:00,
2013-07-05 05:02:00,56.1,41.9,29.65,NNW,333,4.0,7.0,59,0.00,,,0.00,meteohub,2013-07-05 11:02:00,
2013-07-05 05:07:00,56.5,41.9,29.64,NW,322,2.0,7.0,58,0.00,,,0.00,meteohub,2013-07-05 11:07:00,
2013-07-05 05:15:00,57.9,41.9,29.64,NW,316,0.0,7.0,55,0.00,,,0.00,meteohub,2013-07-05 11:15:00,
2013-07-05 05:20:00,58.3,41.7,29.64,West,261,2.0,6.0,54,0.00,,,0.00,meteohub,2013-07-05 11:20:00,
2013-07-05 05:26:00,58.6,41.5,29.63,West,271,2.0,3.0,53,0.00,,,0.00,meteohub,2013-07-05 11:26:00,
2013-07-05 05:31:00,58.8,41.7,29.63,WNW,288,1.0,3.0,53,0.00,,,0.00,meteohub,2013-07-05 11:31:00,
2013-07-05 05:36:00,59.0,41.4,29.63,NW,307,1.0,3.0,52,0.00,,,0.00,meteohub,2013-07-05 11:36:00,
2013-07-05 05:41:00,58.8,41.7,29.63,NW,314,3.0,3.0,53,0.00,,,0.00,meteohub,2013-07-05 11:41:00,
2013-07-05 05:46:00,58.8,41.7,29.63,NW,325,3.0,3.0,53,0.00,,,0.00,meteohub,2013-07-05 11:46:00,
2013-07-05 05:51:00,58.8,41.7,29.63,NW,323,4.0,4.0,53,0.00,,,0.00,meteohub,2013-07-05 11:51:00,
2013-07-05 05:56:00,58.6,42.1,29.63,NW,325,3.0,5.0,54,0.00,,,0.00,meteohub,2013-07-05 11:56:00,
2013-07-05 06:02:00,58.6,42.1,29.64,NW,315,4.0,5.0,54,0.00,,,0.00,meteohub,2013-07-05 12:02:00,
2013-07-05 06:07:00,58.6,42.1,29.64,WNW,297,0.0,5.0,54,0.00,,,0.00,meteohub,2013-07-05 12:07:00,
2013-07-05 06:12:00,58.1,42.1,29.65,SW,214,3.0,5.0,55,0.00,,,0.00,meteohub,2013-07-05 12:12:00,
2013-07-05 06:17:00,58.3,42.3,29.65,WSW,240,2.0,5.0,55,0.00,,,0.00,meteohub,2013-07-05 12:17:00,
2013-07-05 06:22:00,58.6,42.1,29.65,SW,235,0.0,5.0,54,0.00,,,0.00,meteohub,2013-07-05 12:22:00,
2013-07-05 06:27:00,58.5,42.4,29.65,SSE,160,3.0,5.0,55,0.00,,,0.00,meteohub,2013-07-05 12:27:00,
2013-07-05 06:32:00,57.2,42.1,29.65,SE,145,1.0,5.0,57,0.00,,,0.00,meteohub,2013-07-05 12:32:00,
2013-07-05 06:37:00,56.8,42.6,29.64,SE,143,0.0,5.0,59,0.00,,,0.00,meteohub,2013-07-05 12:37:00,
2013-07-05 06:42:00,56.7,42.4,29.64,North,359,0.0,5.0,59,0.00,,,0.00,meteohub,2013-07-05 12:42:00,
2013-07-05 06:47:00,56.8,43.2,29.64,North,0,0.0,4.0,60,0.00,,,0.00,meteohub,2013-07-05 12:47:00,
2013-07-05 06:52:00,57.6,43.3,29.64,SE,124,0.0,2.0,59,0.00,,,0.00,meteohub,2013-07-05 12:52:00,
2013-07-05 06:57:00,58.6,43.5,29.64,East,98,0.0,3.0,57,0.00,,,0.00,meteohub,2013-07-05 12:57:00,
2013-07-05 07:02:00,58.8,43.7,29.64,East,101,0.0,3.0,57,0.00,,,0.00,meteohub,2013-07-05 13:02:00,
2013-07-05 07:07:00,58.8,43.2,29.64,East,101,0.0,3.0,56,0.00,,,0.00,meteohub,2013-07-05 13:07:00,
2013-07-05 07:12:00,59.2,43.0,29.63,East,96,0.0,2.0,55,0.00,,,0.00,meteohub,2013-07-05 13:12:00,
2013-07-05 07:17:00,59.5,43.3,29.64,East,92,0.0,2.0,55,0.00,,,0.00,meteohub,2013-07-05 13:17:00,
2013-07-05 07:22:00,59.9,43.2,29.64,East,92,1.0,2.0,54,0.00,,,0.00,meteohub,2013-07-05 13:22:00,
2013-07-05 07:27:00,59.7,43.5,29.64,NNE,25,0.0,1.0,55,0.00,,,0.00,meteohub,2013-07-05 13:27:00,
2013-07-05 07:33:00,59.7,43.5,29.64,NE,34,1.0,2.0,55,0.00,,,0.00,meteohub,2013-07-05 13:33:00,
2013-07-05 07:38:00,60.3,43.5,29.64,NNW,345,2.0,3.0,54,0.00,,,0.00,meteohub,2013-07-05 13:38:00,
2013-07-05 07:43:00,60.4,43.2,29.64,NE,37,3.0,3.0,53,0.00,,,0.00,meteohub,2013-07-05 13:43:00,
2013-07-05 07:49:00,60.4,43.2,29.63,NE,46,0.0,4.0,53,0.00,,,0.00,meteohub,2013-07-05 13:49:00,
2013-07-05 07:55:00,61.5,43.7,29.63,NE,46,0.0,4.0,52,0.00,,,0.00,meteohub,2013-07-05 13:55:00,
2013-07-05 08:00:00,63.0,43.5,29.63,SE,124,2.0,4.0,49,0.00,,,0.00,meteohub,2013-07-05 14:00:00,
2013-07-05 08:05:00,64.2,43.0,29.63,ESE,113,3.0,3.0,46,0.00,,,0.00,meteohub,2013-07-05 14:05:00,
2013-07-05 08:11:00,64.9,42.4,29.63,SSE,158,5.0,6.0,44,0.00,,,0.00,meteohub,2013-07-05 14:11:00,
2013-07-05 08:16:00,65.5,43.5,29.63,SSW,212,2.0,7.0,45,0.00,,,0.00,meteohub,2013-07-05 14:16:00,
2013-07-05 08:22:00,65.8,43.3,29.63,SSE,158,0.0,7.0,44,0.00,,,0.00,meteohub,2013-07-05 14:22:00,
2013-07-05 08:27:00,65.7,43.2,29.63,SE,134,5.0,6.0,44,0.00,,,0.00,meteohub,2013-07-05 14:27:00,
2013-07-05 08:32:00,65.5,43.0,29.63,WSW,242,2.0,7.0,44,0.00,,,0.00,meteohub,2013-07-05 14:32:00,
2013-07-05 08:37:00,65.5,43.5,29.63,ENE,63,1.0,7.0,45,0.00,,,0.00,meteohub,2013-07-05 14:37:00,
2013-07-05 08:42:00,66.0,42.8,29.63,ESE,122,4.0,7.0,43,0.00,,,0.00,meteohub,2013-07-05 14:42:00,
2013-07-05 08:48:00,66.4,43.2,29.63,SE,124,7.0,8.0,43,0.00,,,0.00,meteohub,2013-07-05 14:48:00,
2013-07-05 08:54:00,66.4,42.6,29.62,SW,232,4.0,12.0,42,0.00,,,0.00,meteohub,2013-07-05 14:54:00,
2013-07-05 08:59:00,66.9,43.2,29.62,SSW,208,5.0,12.0,42,0.00,,,0.00,meteohub,2013-07-05 14:59:00,
2013-07-05 09:05:00,67.5,43.0,29.62,WSW,238,2.0,15.0,41,0.00,,,0.00,meteohub,2013-07-05 15:05:00,
2013-07-05 09:10:00,68.2,43.0,29.62,SSE,150,8.0,15.0,40,0.00,,,0.00,meteohub,2013-07-05 15:10:00,
2013-07-05 09:15:00,68.4,42.4,29.62,SSE,162,10.0,15.0,39,0.00,,,0.00,meteohub,2013-07-05 15:15:00,
2013-07-05 09:21:00,68.7,44.1,29.62,SSE,153,4.0,14.0,41,0.00,,,0.00,meteohub,2013-07-05 15:21:00,
2013-07-05 09:26:00,69.1,43.2,29.62,SE,138,7.0,14.0,39,0.00,,,0.00,meteohub,2013-07-05 15:26:00,
2013-07-05 09:31:00,69.3,43.2,29.61,South,187,6.0,10.0,39,0.00,,,0.00,meteohub,2013-07-05 15:31:00,
2013-07-05 09:36:00,69.8,43.0,29.61,SSE,156,6.0,11.0,38,0.00,,,0.00,meteohub,2013-07-05 15:36:00,
2013-07-05 09:41:00,70.3,42.8,29.60,SE,136,10.0,12.0,37,0.00,,,0.00,meteohub,2013-07-05 15:41:00,
2013-07-05 09:47:00,70.7,43.2,29.60,SSE,166,6.0,12.0,37,0.00,,,0.00,meteohub,2013-07-05 15:47:00,
2013-07-05 09:52:00,71.1,43.5,29.60,SSE,163,7.0,12.0,37,0.00,,,0.00,meteohub,2013-07-05 15:52:00,
2013-07-05 09:57:00,71.4,43.2,29.59,NE,45,4.0,12.0,36,0.00,,,0.00,meteohub,2013-07-05 15:57:00,
2013-07-05 10:02:00,71.6,43.2,29.60,SSE,160,6.0,12.0,36,0.00,,,0.00,meteohub,2013-07-05 16:02:00,
2013-07-05 10:07:00,72.1,43.0,29.59,SE,136,7.0,12.0,35,0.00,,,0.00,meteohub,2013-07-05 16:07:00,
2013-07-05 10:12:00,72.1,43.0,29.59,WSW,253,2.0,10.0,35,0.00,,,0.00,meteohub,2013-07-05 16:12:00,
2013-07-05 10:17:00,73.0,42.3,29.59,SE,138,7.0,10.0,33,0.00,,,0.00,meteohub,2013-07-05 16:17:00,
2013-07-05 10:22:00,73.6,42.6,29.58,ESE,123,4.0,14.0,33,0.00,,,0.00,meteohub,2013-07-05 16:22:00,
2013-07-05 10:27:00,73.9,43.0,29.58,East,91,9.0,14.0,33,0.00,,,0.00,meteohub,2013-07-05 16:27:00,
2013-07-05 10:32:00,73.8,42.8,29.58,ENE,77,5.0,14.0,33,0.00,,,0.00,meteohub,2013-07-05 16:32:00,
2013-07-05 10:35:00,73.6,42.6,29.57,East,95,3.0,13.0,33,0.00,,,0.00,meteohub,2013-07-05 16:35:00,
2013-07-05 10:40:00,73.2,42.4,29.58,NE,46,7.0,13.0,33,0.00,,,0.00,meteohub,2013-07-05 16:40:00,
2013-07-05 10:45:00,73.8,42.8,29.58,NNE,18,12.0,13.0,33,0.00,,,0.00,meteohub,2013-07-05 16:45:00,
2013-07-05 10:50:00,74.1,43.2,29.58,North,359,6.0,14.0,33,0.00,,,0.00,meteohub,2013-07-05 16:50:00,
2013-07-05 10:56:00,74.5,42.6,29.57,North,356,8.0,14.0,32,0.00,,,0.00,meteohub,2013-07-05 16:56:00,
2013-07-05 11:01:00,75.0,43.2,29.57,NE,49,6.0,14.0,32,0.00,,,0.00,meteohub,2013-07-05 17:01:00,
2013-07-05 11:02:00,75.0,43.2,29.57,NE,40,14.0,14.0,32,0.00,,,0.00,meteohub,2013-07-05 17:02:00,
2013-07-05 11:07:00,73.9,42.3,29.56,NNE,23,6.0,18.0,32,0.00,,,0.00,meteohub,2013-07-05 17:07:00,
2013-07-05 11:12:00,74.1,43.9,29.57,North,9,7.0,18.0,34,0.00,,,0.00,meteohub,2013-07-05 17:12:00,
2013-07-05 11:17:00,73.9,43.0,29.57,NNE,18,6.0,18.0,33,0.00,,,0.00,meteohub,2013-07-05 17:17:00,
2013-07-05 11:22:00,73.8,42.8,29.57,North,356,4.0,13.0,33,0.00,,,0.00,meteohub,2013-07-05 17:22:00,
2013-07-05 11:27:00,73.8,42.8,29.57,NW,318,1.0,13.0,33,0.00,,,0.00,meteohub,2013-07-05 17:27:00,
2013-07-05 11:32:00,73.9,43.0,29.57,NNE,18,4.0,9.0,33,0.00,,,0.00,meteohub,2013-07-05 17:32:00,
2013-07-05 11:37:00,73.8,43.7,29.57,WNW,297,1.0,8.0,34,0.00,,,0.00,meteohub,2013-07-05 17:37:00,
2013-07-05 11:42:00,73.8,41.2,29.57,NW,326,7.0,9.0,31,0.00,,,0.00,meteohub,2013-07-05 17:42:00,
2013-07-05 11:47:00,74.1,41.5,29.57,WNW,301,3.0,9.0,31,0.00,,,0.00,meteohub,2013-07-05 17:47:00,
2013-07-05 11:52:00,74.3,40.8,29.57,NNW,334,5.0,9.0,30,0.00,,,0.00,meteohub,2013-07-05 17:52:00,
2013-07-05 11:57:00,74.7,40.3,29.57,NNW,330,6.0,12.0,29,0.00,,,0.00,meteohub,2013-07-05 17:57:00,
2013-07-05 12:02:00,74.7,40.3,29.56,NNW,333,8.0,12.0,29,0.00,,,0.00,meteohub,2013-07-05 18:02:00,
2013-07-05 12:07:00,74.8,41.4,29.56,NNE,18,7.0,12.0,30,0.00,,,0.00,meteohub,2013-07-05 18:07:00,
2013-07-05 12:13:00,75.4,42.6,29.56,NE,37,7.0,12.0,31,0.00,,,0.00,meteohub,2013-07-05 18:13:00,
2013-07-05 12:18:00,76.1,41.5,29.56,NNW,338,3.0,12.0,29,0.00,,,0.00,meteohub,2013-07-05 18:18:00,
2013-07-05 12:23:00,76.8,42.1,29.55,NE,56,8.0,12.0,29,0.00,,,0.00,meteohub,2013-07-05 18:23:00,
2013-07-05 12:28:00,76.8,41.2,29.55,ENE,71,7.0,12.0,28,0.00,,,0.00,meteohub,2013-07-05 18:28:00,
2013-07-05 12:33:00,75.9,40.5,29.55,NNE,13,8.0,12.0,28,0.00,,,0.00,meteohub,2013-07-05 18:33:00,
2013-07-05 12:38:00,75.7,41.2,29.55,East,94,2.0,12.0,29,0.00,,,0.00,meteohub,2013-07-05 18:38:00,
2013-07-05 12:43:00,75.6,41.0,29.55,East,89,2.0,10.0,29,0.00,,,0.00,meteohub,2013-07-05 18:43:00,
2013-07-05 12:48:00,75.6,41.0,29.55,ESE,115,0.0,9.0,29,0.00,,,0.00,meteohub,2013-07-05 18:48:00,
2013-07-05 12:53:00,76.1,41.5,29.55,WSW,248,1.0,6.0,29,0.00,,,0.00,meteohub,2013-07-05 18:53:00,
2013-07-05 12:58:00,76.5,41.9,29.55,SE,146,7.0,7.0,29,0.00,,,0.00,meteohub,2013-07-05 18:58:00,
2013-07-05 13:03:00,76.5,41.9,29.55,SW,235,6.0,9.0,29,0.00,,,0.00,meteohub,2013-07-05 19:03:00,
2013-07-05 13:08:00,76.6,42.1,29.54,South,176,9.0,9.0,29,0.00,,,0.00,meteohub,2013-07-05 19:08:00,
2013-07-05 13:13:00,76.6,42.1,29.54,SSE,162,3.0,12.0,29,0.00,,,0.00,meteohub,2013-07-05 19:13:00,
2013-07-05 13:18:00,76.6,42.1,29.53,SE,142,5.0,12.0,29,0.00,,,0.00,meteohub,2013-07-05 19:18:00,
2013-07-05 13:23:00,76.6,42.1,29.53,SW,231,3.0,12.0,29,0.00,,,0.00,meteohub,2013-07-05 19:23:00,
2013-07-05 13:28:00,76.3,41.7,29.54,ESE,114,3.0,11.0,29,0.00,,,0.00,meteohub,2013-07-05 19:28:00,
2013-07-05 13:33:00,75.0,43.9,29.55,WNW,298,14.0,14.0,33,0.00,,,0.00,meteohub,2013-07-05 19:33:00,
2013-07-05 13:39:00,70.0,45.1,29.56,WNW,293,15.0,34.0,41,0.00,,,0.00,meteohub,2013-07-05 19:39:00,
2013-07-05 13:44:00,66.9,46.6,29.55,SE,142,4.0,34.0,48,0.00,,,0.00,meteohub,2013-07-05 19:44:00,
2013-07-05 13:49:00,65.8,47.1,29.55,SSW,195,6.0,34.0,51,0.01,,,0.01,meteohub,2013-07-05 19:49:00,
2013-07-05 13:54:00,66.9,50.2,29.55,West,274,5.0,27.0,55,0.01,,,0.01,meteohub,2013-07-05 19:54:00,
2013-07-05 13:59:00,69.6,46.8,29.54,SE,144,6.0,16.0,44,0.01,,,0.01,meteohub,2013-07-05 19:59:00,
2013-07-05 14:04:00,71.1,46.8,29.54,SE,135,2.0,9.0,42,0.01,,,0.01,meteohub,2013-07-05 20:04:00,
2013-07-05 14:09:00,71.8,47.5,29.53,SE,137,3.0,7.0,42,0.01,,,0.01,meteohub,2013-07-05 20:09:00,
2013-07-05 14:14:00,72.3,48.0,29.53,ESE,112,10.0,10.0,42,0.01,,,0.01,meteohub,2013-07-05 20:14:00,
2013-07-05 14:19:00,73.0,45.1,29.52,ESE,112,10.0,10.0,37,0.01,,,0.01,meteohub,2013-07-05 20:19:00,
2013-07-05 14:24:00,73.9,46.8,29.52,SSE,149,8.0,11.0,38,0.01,,,0.01,meteohub,2013-07-05 20:24:00,
2013-07-05 14:29:00,74.5,47.8,29.52,SE,145,6.0,12.0,39,0.01,,,0.01,meteohub,2013-07-05 20:29:00,
2013-07-05 14:34:00,73.9,46.0,29.52,SE,145,5.0,12.0,37,0.01,,,0.01,meteohub,2013-07-05 20:34:00,
2013-07-05 14:36:00,74.5,45.9,29.51,ESE,109,5.0,12.0,36,0.01,,,0.01,meteohub,2013-07-05 20:36:00,
2013-07-05 14:41:00,74.8,47.5,29.52,SSE,153,7.0,12.0,38,0.00,,,0.01,meteohub,2013-07-05 20:41:00,
2013-07-05 14:46:00,75.7,46.2,29.51,SSE,166,5.0,12.0,35,0.00,,,0.01,meteohub,2013-07-05 20:46:00,
2013-07-05 14:51:00,76.6,46.2,29.51,South,186,3.0,11.0,34,0.00,,,0.01,meteohub,2013-07-05 20:51:00,
2013-07-05 14:57:00,76.6,45.3,29.51,SSE,160,5.0,10.0,33,0.00,,,0.01,meteohub,2013-07-05 20:57:00,
2013-07-05 15:02:00,77.2,45.9,29.51,ESE,108,4.0,9.0,33,0.00,,,0.01,meteohub,2013-07-05 21:02:00,
2013-07-05 15:07:00,77.2,44.2,29.50,ESE,117,7.0,9.0,31,0.00,,,0.01,meteohub,2013-07-05 21:07:00,
2013-07-05 15:12:00,77.4,44.4,29.50,ESE,103,5.0,9.0,31,0.00,,,0.01,meteohub,2013-07-05 21:12:00,
2013-07-05 15:17:00,78.1,44.1,29.50,SE,141,1.0,9.0,30,0.00,,,0.01,meteohub,2013-07-05 21:17:00,
2013-07-05 15:22:00,77.7,44.6,29.50,NE,46,7.0,9.0,31,0.00,,,0.01,meteohub,2013-07-05 21:22:00,
2013-07-05 15:27:00,77.7,44.6,29.50,East,84,5.0,9.0,31,0.00,,,0.01,meteohub,2013-07-05 21:27:00,
2013-07-05 15:32:00,78.1,44.1,29.50,North,9,4.0,11.0,30,0.00,,,0.01,meteohub,2013-07-05 21:32:00,
2013-07-05 15:37:00,78.6,44.6,29.50,NE,44,4.0,11.0,30,0.00,,,0.01,meteohub,2013-07-05 21:37:00,
2013-07-05 15:42:00,78.4,43.5,29.49,East,82,7.0,11.0,29,0.00,,,0.01,meteohub,2013-07-05 21:42:00,
2013-07-05 15:47:00,79.2,44.2,29.49,NNE,29,9.0,11.0,29,0.00,,,0.01,meteohub,2013-07-05 21:47:00,
2013-07-05 15:52:00,79.2,43.2,29.49,NNW,333,4.0,12.0,28,0.00,,,0.01,meteohub,2013-07-05 21:52:00,
2013-07-05 15:57:00,79.3,43.3,29.49,NNE,20,9.0,12.0,28,0.00,,,0.01,meteohub,2013-07-05 21:57:00,
2013-07-05 16:02:00,79.0,42.1,29.49,ENE,70,3.0,14.0,27,0.00,,,0.01,meteohub,2013-07-05 22:02:00,
2013-07-05 16:07:00,79.3,43.3,29.49,NE,41,9.0,14.0,28,0.00,,,0.01,meteohub,2013-07-05 22:07:00,
2013-07-05 16:12:00,79.7,42.8,29.48,NE,56,4.0,14.0,27,0.00,,,0.01,meteohub,2013-07-05 22:12:00,
2013-07-05 16:17:00,79.7,41.7,29.49,NNW,342,7.0,12.0,26,0.00,,,0.01,meteohub,2013-07-05 22:17:00,
2013-07-05 16:22:00,79.7,41.7,29.48,East,94,5.0,11.0,26,0.00,,,0.01,meteohub,2013-07-05 22:22:00,
2013-07-05 16:27:00,79.5,42.6,29.48,NNE,19,4.0,11.0,27,0.00,,,0.01,meteohub,2013-07-05 22:27:00,
2013-07-05 16:32:00,79.2,42.3,29.48,NNE,12,1.0,11.0,27,0.00,,,0.01,meteohub,2013-07-05 22:32:00,
2013-07-05 16:37:00,79.9,41.9,29.48,NW,313,2.0,10.0,26,0.00,,,0.01,meteohub,2013-07-05 22:37:00,
2013-07-05 16:42:00,80.2,42.3,29.48,East,84,1.0,10.0,26,0.00,,,0.01,meteohub,2013-07-05 22:42:00,
2013-07-05 16:47:00,80.2,43.2,29.48,NNE,32,6.0,6.0,27,0.00,,,0.01,meteohub,2013-07-05 22:47:00,
2013-07-05 16:52:00,79.3,42.4,29.48,NNW,341,7.0,9.0,27,0.00,,,0.01,meteohub,2013-07-05 22:52:00,
2013-07-05 16:57:00,79.7,42.8,29.47,NNW,333,7.0,9.0,27,0.00,,,0.01,meteohub,2013-07-05 22:57:00,
2013-07-05 17:02:00,79.5,42.6,29.48,NW,326,5.0,9.0,27,0.00,,,0.01,meteohub,2013-07-05 23:02:00,
2013-07-05 17:07:00,80.1,43.0,29.48,ENE,61,3.0,9.0,27,0.00,,,0.01,meteohub,2013-07-05 23:07:00,
2013-07-05 17:12:00,80.2,41.2,29.48,WNW,291,3.0,9.0,25,0.00,,,0.01,meteohub,2013-07-05 23:12:00,
2013-07-05 17:17:00,79.9,38.8,29.48,NW,307,2.0,11.0,23,0.00,,,0.01,meteohub,2013-07-05 23:17:00,
2013-07-05 17:22:00,79.5,39.6,29.48,WNW,293,3.0,13.0,24,0.00,,,0.01,meteohub,2013-07-05 23:22:00,
2013-07-05 17:27:00,78.6,43.7,29.48,SE,141,5.0,13.0,29,0.00,,,0.01,meteohub,2013-07-05 23:27:00,
2013-07-05 17:28:00,78.4,44.4,29.48,SE,145,3.0,13.0,30,0.00,,,0.01,meteohub,2013-07-05 23:28:00,
2013-07-05 17:34:00,77.7,43.9,29.48,SSE,165,5.0,16.0,30,0.00,,,0.01,meteohub,2013-07-05 23:34:00,
2013-07-05 17:39:00,77.9,44.1,29.48,SSE,152,6.0,16.0,30,0.00,,,0.01,meteohub,2013-07-05 23:39:00,
2013-07-05 17:44:00,77.5,44.6,29.48,SSE,165,5.0,12.0,31,0.00,,,0.01,meteohub,2013-07-05 23:44:00,
2013-07-05 17:47:00,77.4,44.4,29.48,SW,226,6.0,12.0,31,0.00,,,0.01,meteohub,2013-07-05 23:47:00,
2013-07-05 17:52:00,77.2,43.3,29.48,SW,233,5.0,10.0,30,0.00,,,0.01,meteohub,2013-07-05 23:52:00,
2013-07-05 17:57:00,77.0,44.1,29.48,SSW,204,12.0,13.0,31,0.00,,,0.01,meteohub,2013-07-05 23:57:00,
2013-07-05 18:02:00,76.6,44.6,29.47,South,177,5.0,13.0,32,0.00,,,0.01,meteohub,2013-07-06 00:02:00,
2013-07-05 18:07:00,75.9,43.9,29.48,SW,217,9.0,13.0,32,0.00,,,0.00,meteohub,2013-07-06 00:07:00,
2013-07-05 18:12:00,75.4,44.2,29.47,SSW,212,4.0,14.0,33,0.00,,,0.00,meteohub,2013-07-06 00:12:00,
2013-07-05 18:17:00,75.4,45.1,29.47,WSW,256,3.0,14.0,34,0.00,,,0.00,meteohub,2013-07-06 00:17:00,
2013-07-05 18:23:00,75.4,45.1,29.48,SE,128,2.0,13.0,34,0.00,,,0.00,meteohub,2013-07-06 00:23:00,
2013-07-05 18:27:00,75.2,45.0,29.48,South,169,6.0,13.0,34,0.00,,,0.00,meteohub,2013-07-06 00:27:00,
2013-07-05 18:32:00,74.8,45.3,29.48,SSE,151,15.0,17.0,35,0.00,,,0.00,meteohub,2013-07-06 00:32:00,
2013-07-05 18:37:00,74.1,44.8,29.48,South,190,10.0,17.0,35,0.00,,,0.00,meteohub,2013-07-06 00:37:00,
2013-07-05 18:43:00,73.8,45.1,29.49,South,169,7.0,17.0,36,0.00,,,0.00,meteohub,2013-07-06 00:43:00,
2013-07-05 18:49:00,73.8,45.1,29.49,SSE,156,10.0,17.0,36,0.00,,,0.00,meteohub,2013-07-06 00:49:00,
2013-07-05 18:54:00,73.8,45.1,29.49,South,176,9.0,17.0,36,0.00,,,0.00,meteohub,2013-07-06 00:54:00,
2013-07-05 19:00:00,73.6,45.0,29.49,South,175,10.0,15.0,36,0.00,,,0.00,meteohub,2013-07-06 01:00:00,
2013-07-05 19:05:00,73.4,44.8,29.50,SSW,198,7.0,15.0,36,0.00,,,0.00,meteohub,2013-07-06 01:05:00,
2013-07-05 19:10:00,73.2,45.3,29.50,SSW,201,10.0,16.0,37,0.00,,,0.00,meteohub,2013-07-06 01:10:00,
2013-07-05 19:15:00,72.9,45.1,29.50,SSW,210,9.0,16.0,37,0.00,,,0.00,meteohub,2013-07-06 01:15:00,
2013-07-05 19:17:00,72.7,45.0,29.49,NW,305,9.0,16.0,37,0.00,,,0.00,meteohub,2013-07-06 01:17:00,
2013-07-05 19:22:00,72.3,45.3,29.49,South,179,9.0,16.0,38,0.00,,,0.00,meteohub,2013-07-06 01:22:00,
2013-07-05 19:27:00,72.0,45.0,29.49,SW,219,7.0,17.0,38,0.00,,,0.00,meteohub,2013-07-06 01:27:00,
2013-07-05 19:32:00,71.4,44.4,29.50,SW,221,10.0,17.0,38,0.00,,,0.00,meteohub,2013-07-06 01:32:00,
2013-07-05 19:37:00,71.2,44.2,29.50,NE,44,7.0,17.0,38,0.00,,,0.00,meteohub,2013-07-06 01:37:00,
2013-07-05 19:42:00,70.9,44.1,29.51,SSE,167,6.0,18.0,38,0.00,,,0.00,meteohub,2013-07-06 01:42:00,
2013-07-05 19:47:00,70.9,44.1,29.52,NW,321,6.0,19.0,38,0.00,,,0.00,meteohub,2013-07-06 01:47:00,
2013-07-05 19:52:00,70.7,44.6,29.52,SSE,148,12.0,19.0,39,0.00,,,0.00,meteohub,2013-07-06 01:52:00,
2013-07-05 19:57:00,70.3,45.0,29.53,WSW,242,12.0,19.0,40,0.00,,,0.00,meteohub,2013-07-06 01:57:00,
2013-07-05 20:02:00,69.8,46.2,29.54,South,174,10.0,20.0,43,0.00,,,0.00,meteohub,2013-07-06 02:02:00,
2013-07-05 20:07:00,68.7,47.1,29.55,ESE,105,9.0,21.0,46,0.00,,,0.00,meteohub,2013-07-06 02:07:00,
2013-07-05 20:12:00,67.5,48.7,29.56,ENE,66,4.0,21.0,51,0.00,,,0.00,meteohub,2013-07-06 02:12:00,
2013-07-05 20:18:00,66.2,50.5,29.57,North,1,3.0,21.0,57,0.00,,,0.00,meteohub,2013-07-06 02:18:00,
2013-07-05 20:23:00,64.8,51.8,29.58,NW,304,0.0,13.0,63,0.00,,,0.00,meteohub,2013-07-06 02:23:00,
2013-07-05 20:28:00,63.9,50.2,29.58,SW,227,2.0,10.0,61,0.00,,,0.00,meteohub,2013-07-06 02:28:00,
2013-07-05 20:33:00,63.0,51.4,29.58,SSW,204,2.0,9.0,66,0.01,,,0.01,meteohub,2013-07-06 02:33:00,
2013-07-05 20:38:00,62.1,51.8,29.58,SW,233,3.0,7.0,69,0.07,,,0.07,meteohub,2013-07-06 02:38:00,
2013-07-05 20:43:00,61.5,51.6,29.58,WSW,238,2.0,4.0,70,0.09,,,0.09,meteohub,2013-07-06 02:43:00,
2013-07-05 20:48:00,61.0,53.4,29.58,WSW,253,3.0,4.0,76,0.09,,,0.09,meteohub,2013-07-06 02:48:00,
2013-07-05 20:53:00,60.4,51.8,29.58,SSW,204,2.0,4.0,73,0.09,,,0.09,meteohub,2013-07-06 02:53:00,
2013-07-05 20:58:00,60.4,52.9,29.59,SSW,208,3.0,7.0,76,0.09,,,0.09,meteohub,2013-07-06 02:58:00,
2013-07-05 21:03:00,59.9,52.7,29.59,SW,229,6.0,7.0,77,0.09,,,0.09,meteohub,2013-07-06 03:03:00,
2013-07-05 21:08:00,59.5,53.1,29.59,WSW,242,7.0,7.0,79,0.09,,,0.09,meteohub,2013-07-06 03:08:00,
2013-07-05 21:13:00,59.4,52.5,29.60,SW,236,6.0,7.0,78,0.09,,,0.09,meteohub,2013-07-06 03:13:00,
2013-07-05 21:18:00,59.2,52.0,29.60,WSW,248,4.0,7.0,77,0.09,,,0.09,meteohub,2013-07-06 03:18:00,
2013-07-05 21:23:00,59.2,52.0,29.60,SSW,212,5.0,8.0,77,0.09,,,0.09,meteohub,2013-07-06 03:23:00,
2013-07-05 21:28:00,58.8,51.6,29.61,WSW,248,4.0,9.0,77,0.09,,,0.09,meteohub,2013-07-06 03:28:00,
2013-07-05 21:34:00,58.6,52.2,29.62,SE,136,8.0,9.0,79,0.06,,,0.09,meteohub,2013-07-06 03:34:00,
2013-07-05 21:39:00,58.5,52.0,29.62,South,184,3.0,11.0,79,0.01,,,0.09,meteohub,2013-07-06 03:39:00,
2013-07-05 21:44:00,58.3,52.2,29.63,SSW,202,2.0,11.0,80,0.00,,,0.09,meteohub,2013-07-06 03:44:00,
2013-07-05 21:49:00,57.9,51.8,29.64,SE,140,0.0,9.0,80,0.00,,,0.09,meteohub,2013-07-06 03:49:00,
2013-07-05 21:54:00,57.9,51.8,29.64,SSW,202,4.0,5.0,80,0.00,,,0.09,meteohub,2013-07-06 03:54:00,
2013-07-05 21:59:00,58.1,51.6,29.64,SSW,207,6.0,6.0,79,0.00,,,0.09,meteohub,2013-07-06 03:59:00,
2013-07-05 22:01:00,58.3,51.8,29.64,ENE,57,4.0,8.0,79,0.00,,,0.09,meteohub,2013-07-06 04:01:00,
2013-07-05 22:02:00,58.3,51.4,29.64,SSW,210,4.0,8.0,78,0.00,,,0.09,meteohub,2013-07-06 04:02:00,
2013-07-05 22:04:00,58.3,51.4,29.64,South,187,6.0,8.0,78,0.00,,,0.09,meteohub,2013-07-06 04:04:00,
2013-07-05 22:06:00,58.3,51.4,29.64,SSW,208,3.0,10.0,78,0.00,,,0.09,meteohub,2013-07-06 04:06:00,
2013-07-05 22:11:00,58.5,51.3,29.64,SSE,148,7.0,11.0,77,0.00,,,0.09,meteohub,2013-07-06 04:11:00,
2013-07-05 22:16:00,58.5,51.3,29.65,SSW,199,2.0,11.0,77,0.00,,,0.09,meteohub,2013-07-06 04:16:00,
2013-07-05 22:21:00,58.3,51.1,29.65,WSW,248,3.0,12.0,77,0.00,,,0.09,meteohub,2013-07-06 04:21:00,
2013-07-05 22:26:00,58.3,50.7,29.65,SE,124,7.0,12.0,76,0.00,,,0.09,meteohub,2013-07-06 04:26:00,
2013-07-05 22:31:00,58.3,51.1,29.65,SW,217,5.0,14.0,77,0.00,,,0.09,meteohub,2013-07-06 04:31:00,
2013-07-05 22:36:00,58.3,51.1,29.65,South,188,5.0,14.0,77,0.00,,,0.09,meteohub,2013-07-06 04:36:00,
2013-07-05 22:41:00,58.1,50.9,29.65,SW,231,8.0,14.0,77,0.00,,,0.09,meteohub,2013-07-06 04:41:00,
2013-07-05 22:47:00,57.9,50.4,29.65,WSW,243,3.0,12.0,76,0.00,,,0.09,meteohub,2013-07-06 04:47:00,
2013-07-05 22:52:00,57.9,50.4,29.65,WSW,255,8.0,11.0,76,0.00,,,0.09,meteohub,2013-07-06 04:52:00,
2013-07-05 22:57:00,58.1,50.5,29.65,South,184,7.0,11.0,76,0.00,,,0.09,meteohub,2013-07-06 04:57:00,
2013-07-05 23:02:00,57.9,50.4,29.65,South,173,6.0,11.0,76,0.00,,,0.09,meteohub,2013-07-06 05:02:00,
2013-07-05 23:07:00,57.9,50.4,29.65,South,191,4.0,10.0,76,0.00,,,0.09,meteohub,2013-07-06 05:07:00,
2013-07-05 23:12:00,57.9,50.4,29.65,SSE,152,3.0,10.0,76,0.00,,,0.09,meteohub,2013-07-06 05:12:00,
2013-07-05 23:17:00,57.9,50.4,29.65,South,172,2.0,9.0,76,0.00,,,0.09,meteohub,2013-07-06 05:17:00,
2013-07-05 23:22:00,57.9,50.4,29.65,South,187,3.0,9.0,76,0.00,,,0.09,meteohub,2013-07-06 05:22:00,
2013-07-05 23:27:00,57.7,50.2,29.64,WSW,257,2.0,7.0,76,0.00,,,0.09,meteohub,2013-07-06 05:27:00,
2013-07-05 23:32:00,57.7,50.2,29.64,South,174,3.0,7.0,76,0.00,,,0.09,meteohub,2013-07-06 05:32:00,
2013-07-05 23:37:00,57.6,50.4,29.63,South,170,5.0,7.0,77,0.00,,,0.09,meteohub,2013-07-06 05:37:00,
2013-07-05 23:42:00,57.6,50.4,29.63,SSW,211,1.0,7.0,77,0.00,,,0.09,meteohub,2013-07-06 05:42:00,
2013-07-05 23:47:00,57.4,50.2,29.64,SSW,203,1.0,7.0,77,0.00,,,0.09,meteohub,2013-07-06 05:47:00,
2013-07-05 23:52:00,57.4,50.2,29.64,WSW,238,2.0,6.0,77,0.00,,,0.09,meteohub,2013-07-06 05:52:00,
2013-07-05 23:57:00,57.4,50.2,29.64,SSW,201,1.0,6.0,77,0.00,,,0.09,meteohub,2013-07-06 05:57:00,